ELECTRON DEB, 64343

Orbit data source: Space-Track

ELECTRON DEB, 64343 is space debris in LEO originally from a launch on Wed, 11 Jun 2025 UTC launched from the Rocket Lab Launch Complex (RLLC). Debris objects in space refer to the collection of defunct objects orbiting the Earth. Examples of debris include non-operational satellites, rocket bodies, and fragments generated from explosions, collisions, or faulty payload assembly.

Not visible in the next 10 days
Identifier
64343, 2025-125D
Orbit
LEO
Last TLE update
1 month ago
Origin
Flag of USRLABN (US)
Manufacturer
Rocket Lab
Mission
Decayed spacecraft
Bus & Motor
Unknown
Mass
Unknown
Launch date (UTC)
2025-06-11 (1 month ago)
Launch vehicle
Unknown
Launch site
Rocket Lab Launch Complex (RLLC)
Object type
Payload
Rocket body
Debris
Shape & HBR
Unknown
Radar Cross Section
Large (>1 m²)

Expand to show TLE details & history

TLE from 1 month ago
0 ELECTRON DEB
1 64343U 25125D   25163.14389056  .19862338  62886-5  35037-1 0  9992
2 64343  42.0238  64.6207 0204325 234.1039 277.4123 15.73018143    70
Epoch: 2025-06-12T03:27Z
TLE epoch observation values (Epoch: 2025-06-12T03:27:12.144Z)
Latitude
20.1205°
Longitude
-91.74008°
Altitude
334.549 km
Speed
7.72 km/s
True Right ascension
14h 43m 06s
True Declination
20° 00' 10"
Sunlit
Object was in full shadow at epoch
Visualization observer readout
Visualization observer readout
Orbital elements
Apogee altitude
489.95 km
Perigee altitude
214.906 km
Semi-major axis
6,730.565 km
Eccentricity
0.02043
Inclination
42.0238°
RAAN
64.6207°
Arg. of periapsis
234.1039°
True anomaly
275.08344°
Mean anomaly
277.4123°
Eccentric anomaly
276.24856°
Mean motion
3.93066 °/min
Orbital period
91.59 mins
BSTAR
0.035037
Loading maneuver chart data...
Loading SW <> Apogee altitude chart data...
Loading historical data...
Loading historical data...
Loading historical data...
Loading historical data...
Loading historical data...
Loading historical data...
Loading historical data...
Other satellites on launch #125 in the year 2025 (2025-06-11 UTC)
|